Regional Weather Roundup
Issued by NWS State College, PA

Home | Current Version | Previous Version | Text Only | Print | Product List | Glossary On
Versions: 1 2 3 4 5 6 7 8 9 10 11 12 13 14 15 16 17 18 19 20 21 22 23 24 25 26 27 28 29 30 31 32 33 34 35 36 37 38 39 40 41 42 43 44 45 46 47 48 49 50
000
ASUS41 KCTP 172110
RWRCTP

REGIONAL WEATHER ROUNDUP
NATIONAL WEATHER SERVICE STATE COLLEGE PA
400 PM EST WED DEC 17 2014

Note: "fair" indicates few or no clouds below 12,000 feet with no
significant weather and/or obstructions to visibility.

* = STATION THAT DOES NOT REPORT PRECIPITATION /E.G. RAIN...SNOW...ETC/
    THUNDER OR FOG.

PAZ002>004-007>009-013>016-020>023-029>032-172200-
WESTERN PENNSYLVANIA

CITY           SKY/WX    TMP DP  RH WIND       PRES   REMARKS
ERIE           CLOUDY    33  25  72 W15G26    30.02S
MEADVILLE      CLOUDY    30  22  72 W12G23    30.02R
FRANKLIN*      CLOUDY    30  21  69 W15G21    30.03R
NEW CASTLE       N/A     31  24  75 W14       30.08R
BEAVER COUNTY  CLOUDY    32  25  74 W12G22    30.07R
BUTLER*        CLOUDY    32  25  74 W6G16     30.07R
PITTSBURGH INT CLOUDY    33  24  69 W14G20    30.07R
PITTSBURGH     CLOUDY    32  22  66 W10       30.06R
INDIANA*       CLOUDY    32  25  74 NW13G24   30.06R
LATROBE        CLOUDY   N/A N/A N/A W17G29    30.07R
WASHINGTON CO* CLOUDY    32  23  69 W10       30.10S
$$

PAZ004>006-010>012-017>019-024>028-033>037-041-042-045-046-049>053-172200-
CENTRAL PENNSYLVANIA

CITY           SKY/WX    TMP DP  RH WIND       PRES   REMARKS
BRADFORD       LGT SNOW  29  24  82 W13G21    29.92R VSB 3/4
DUBOIS         CLOUDY    30  26  85 W12G23    29.97R
CLEARFIELD     CLOUDY    32  26  78 W8        29.98R
JOHNSTOWN      CLOUDY    30  21  69 W17G32    29.96R
ALTOONA        CLOUDY    34  26  72 W15       29.99R
STATE COLLEGE  CLOUDY    36  27  69 W17G25    29.97R
WILLIAMSPORT   LGT RAIN  40  30  67 W13G22    29.94R
SELINSGROVE    CLOUDY    43  28  55 W7G20     29.96R
FT INDIANTOWN  PTCLDY    42  29  58 W12G25    29.95R
CAPITAL CITY   MOCLDY    44  27  51 W14G23    29.97S
HARRISBURG     MOCLDY    43  28  55 W16G26    29.96R
YORK           CLOUDY    45  27  49 W14G22    29.98R
$$

PAZ038>040-043-044-047-048-054-055-060>062-067>071-172200-
EASTERN PENNSYLVANIA

CITY           SKY/WX    TMP DP  RH WIND       PRES   REMARKS
SCRANTON       CLOUDY    42  36  79 SW12G20   29.87R
MOUNT POCONO   LGT RAIN  37  33  85 W17       29.81F
ALLENTOWN      MOCLDY    46  31  55 W16G23    29.89R
QUAKERTOWN*    PTCLDY    45  32  61 W12G20    29.90R
READING        CLOUDY    45  29  53 W20       29.92R
LANCASTER      CLOUDY    43  29  57 W18G31    29.95R
COATESVILLE    CLOUDY    45  34  65 W21G28    29.93R
POTTSTOWN      CLOUDY    45  31  58 W9G20     29.93R
BLUE BELL      CLOUDY    46  34  61 W8        29.90R
DOYLESTOWN     PTCLDY    45  31  58 W14G25    29.89R
WILLOW GROVE   NOT AVBL
NORTH PHILA    CLOUDY    49  31  49 W17G23    29.92R
PHILADELPHIA   MOCLDY    50  31  48 W17G26    29.93R
$$


USA.gov is the U.S. government's official web portal to all federal, state and local government web resources and services.